RH
96 99 99 100 100 90 83 96 99 88 78 68 54 41 44 39 36 47 57 51 46 33 37 44 42 40 39 39 38 37 38 38 36 36 36 35 33 32 32 32 33 34 34 33
100 100 100 95 85 78 76 98 92 90 92 69 56 48 41 44 50 53 55 66 58 46 36 37 46 48 43 41 40 39 38 38 37 37 37 36 36 36 36 36 36 36 35 34
100 100 87 77 75 79 85 99 96 100 90 76 66 62 43 40 49 64 60 68 72 60 50 45 36 42 52 52 48 44 42 41 41 41 41 40 40 39 39 39 39 39 40 42
96 86 75 81 86 80 87 96 98 98 88 72 64 70 52 46 53 59 66 70 75 79 74 59 51 48 40 40 51 56 54 51 48 46 46 46 46 48 50 51 51 51 51 52
100 84 81 84 84 90 98 100 100 100 86 62 75 67 74 58 55 59 58 60 59 62 69 89 88 73 60 54 49 41 42 52 62 62 60 61 60 60 59 59 60 60 60 60
90 77 71 74 88 93 96 81 73 82 77 68 78 75 72 63 70 69 66 60 53 50 53 56 61 74 83 86 81 71 65 58 54 50 49 49 48 47 46 47 47 46 46 48
65 66 78 97 91 93 86 81 87 81 81 79 82 75 80 75 69 68 64 64 60 52 46 41 43 52 61 70 77 85 90 92 88 82 81 86 93 97 93 90 83 80 78 76
89 99 100 99 94 99 100 96 89 76 85 90 90 83 91 90 81 75 69 59 55 52 43 41 42 44 44 46 51 60 68 74 76 80 92 100 100 100 99 100 94 91 88 82
100 100 100 91 98 100 100 97 98 93 88 86 95 99 99 99 95 92 90 84 69 58 56 62 59 52 48 45 44 44 48 54 60 65 70 77 90 96 94 99 100 100 96 91
100 98 100 100 100 98 92 94 92 84 73 78 78 77 78 80 88 86 83 76 74 76 80 81 68 62 59 54 49 47 47 46 47 52 55 58 59 61 65 69 74 82 88 89
88 87 100 100 100 99 94 89 86 79 77 74 73 83 82 98 87 80 76 74 71 72 74 72 82 78 70 63 63 61 59 58 55 51 50 49 48 49 54 58 60 64 67 70
92 88 91 90 89 85 82 84 89 92 86 78 77 63 80 72 69 69 64 72 78 78 80 81 83 81 77 73 73 79 91 86 78 74 71 70 69 65 63 63 69 69 66 63
92 82 84 88 85 82 79 80 80 78 75 80 72 91 81 77 75 78 83 83 78 69 64 64 65 69 71 70 67 65 69 80 89 85 86 88 88 73 69 71 76 88 85 77
80 83 82 82 86 94 95 89 84 78 85 75 80 78 86 78 72 76 80 86 85 81 75 67 59 55 55 56 58 62 63 61 57 54 54 53 50 48 47 44 44 49 55 63
86 89 88 84 83 84 84 82 86 86 83 72 95 94 100 91 81 88 89 83 76 68 60 55 52 50 50 53 53 53 54 53 53 52 49 47 44 41 36 36 37 38 40 41
98 100 96 91 85 77 76 94 95 97 97 84 87 95 80 72 65 64 62 59 59 59 58 55 53 52 48 43 42 42 43 46 48 46 42 39 38 35 34 33 33 33 32 32
96 83 85 92 99 95 90 99 100 99 94 83 75 70 68 66 65 63 61 58 58 57 56 52 47 46 42 37 34 35 35 36 36 37 39 42 42 43 41 37 35 35 34 33
98 84 77 77 81 84 93 87 83 78 69 65 62 60 60 58 60 61 61 57 54 51 48 45 40 36 33 32 32 33 33 34 36 36 38 38 37 37 37 38 40 42 40 37
100 100 96 89 81 72 70 71 66 59 55 52 48 46 45 46 46 48 44 37 34 34 34 34 33 32 32 32 31 32 33 34 34 35 35 34 34 34 34 34 33 33 33 32
78 76 70 68 65 60 55 50 46 46 47 53 49 48 46 41 37 36 36 35 34 33 33 31 29 29 29 29 28 28 29 29 30 29 28 28 27 26 26 26 24 24 24 24
65 65 66 61 50 44 40 39 39 41 37 37 34 33 33 34 34 33 31 27 22 19 17 16 16 17 18 18 18 18 17 18 19 20 22 22 22 24 26 26 24 21 19 19
55 53 51 44 39 37 48 51 49 36 35 36 35 32 29 27 25 21 19 18 17 15 14 14 13 12 12 12 12 12 13 13 14 14 15 15 15 15 15 15 15 15 15 16
49 49 44 39 39 43 41 36 38 36 32 27 24 21 21 20 18 15 14 14 14 13 14 14 13 13 13 13 13 13 13 13 13 12 12 12 12 13 13 13 13 13 13 14
53 55 43 40 40 39 36 33 30 27 24 23 22 21 18 15 14 14 13 14 14 14 14 13 13 12 12 12 12 12 13 13 14 13 13 13 13 13 13 12 12 12 12 12
51 39 35 40 37 31 28 28 25 22 21 19 16 14 14 13 12 13 13 13 13 13 12 11 12 12 12 12 11 11 11 12 13 13 13 13 13 13 13 13 12 12 12 12
44 33 35 33 30 26 27 24 22 20 16 15 14 14 14 14 13 12 11 10 10 9 9 9 9 10 11 11 11 10 10 11 11 12 12 12 12 12 12 12 12 12 12 13
Wind_Speed
46 45 41 42 40 35 35 37 41 39 40 41 43 41 40 40 37 34 33 31 27 28 34 44 44 46 47 47 47 47 48 48 49 50 51 51 51 51 51 51 52 52 52 51
42 40 40 40 38 36 37 39 41 41 40 40 42 45 39 39 40 37 33 33 33 31 32 34 42 47 48 49 49 50 51 51 52 52 54 54 54 54 55 55 56 55 55 53
42 43 41 39 38 39 39 40 41 39 39 41 44 46 44 40 39 38 37 33 33 35 36 36 37 39 44 50 52 53 54 54 55 56 57 58 58 58 59 58 58 57 57 56
41 42 41 40 38 39 39 39 41 41 42 45 45 41 48 43 40 38 38 36 35 35 37 39 40 41 43 45 48 51 55 57 58 59 60 61 61 61 62 61 61 61 60 59
43 44 43 42 41 41 42 42 44 45 46 47 47 40 46 47 44 42 41 41 41 41 42 42 44 46 48 49 49 50 52 53 56 58 59 60 61 61 61 60 60 60 59 59
47 49 49 49 46 45 46 49 50 50 51 47 49 44 42 47 48 47 46 46 46 46 46 47 48 49 51 52 53 55 57 57 58 60 60 61 62 63 63 63 63 63 63 64
51 52 51 50 49 50 53 56 54 52 51 48 47 45 46 47 49 50 50 52 54 54 55 55 56 56 55 56 56 57 59 60 61 63 64 65 66 66 64 64 65 65 66 67
49 49 52 55 55 57 58 56 57 54 51 49 49 49 49 51 53 55 55 55 57 58 56 56 57 56 58 61 63 64 64 65 65 65 66 68 70 71 71 72 72 72 72 72
51 53 57 59 59 57 57 57 57 56 55 53 53 52 53 56 57 58 58 58 58 59 61 63 64 63 63 62 61 62 65 68 71 73 74 75 75 77 77 78 79 79 79 78
55 55 56 58 58 58 58 59 61 62 59 57 57 57 59 60 62 63 62 62 61 62 66 67 68 69 69 70 72 72 71 72 73 75 77 78 79 81 83 84 85 85 84 84
60 57 56 57 59 61 62 63 64 66 65 65 63 62 64 65 67 67 67 68 69 68 69 71 73 75 77 79 80 81 82 81 80 81 81 82 82 83 84 85 85 86 86 84
56 55 57 59 61 62 63 64 66 67 67 67 67 64 70 73 74 74 75 75 75 76 77 78 80 81 82 84 86 88 89 90 90 90 90 90 91 91 91 90 90 90 89 88
58 59 62 63 65 65 66 67 69 70 71 72 75 74 78 80 81 81 82 83 85 87 88 89 89 90 91 92 93 94 95 97 97 97 97 97 98 97 96 96 96 98 98 98
63 64 65 66 66 66 68 72 75 76 77 79 79 84 86 88 88 89 90 92 94 95 97 99 99 99 99 99 98 99 99 100 99 98 98 98 98 98 98 98 98 100 101 102
66 67 68 71 72 72 73 77 80 82 84 85 84 87 94 95 95 96 99 101 103 104 104 102 102 102 102 102 102 103 104 103 103 103 103 103 103 102 102 103 103 102 104 103
71 72 75 77 78 78 78 82 87 89 91 93 94 94 100 101 102 102 103 104 105 107 108 107 106 105 104 104 105 106 106 106 107 109 109 108 107 105 104 103 104 104 104 105
74 77 78 78 83 85 84 90 93 96 98 101 100 100 103 104 106 107 107 107 108 108 108 108 109 110 112 112 112 111 111 111 111 112 111 111 111 111 111 110 109 108 108 107
81 86 88 89 92 92 93 94 97 100 102 103 103 104 102 102 102 105 105 108 111 113 115 117 117 117 116 115 115 115 114 113 113 112 112 112 111 110 110 109 109 110 109 108
88 92 94 95 96 97 101 101 100 100 97 98 99 100 101 104 109 112 115 116 116 116 116 116 117 117 116 116 115 114 112 111 109 110 108 108 107 107 107 108 109 109 110 109
94 98 101 103 104 101 96 98 97 97 96 99 103 107 111 113 114 114 113 111 111 111 112 113 114 114 115 115 114 114 113 113 112 112 111 111 111 110 111 111 111 110 111 111
93 97 98 102 104 98 96 96 99 102 105 106 108 109 109 108 108 109 112 114 113 113 113 113 113 111 112 112 111 110 111 111 112 114 114 113 111 111 111 112 112 112 112 113
98 101 101 104 104 100 99 103 108 108 106 105 104 105 108 109 110 110 110 111 111 109 108 108 106 105 105 105 104 103 102 102 102 102 102 102 102 101 101 102 103 103 103 103
102 103 105 106 106 108 108 106 103 103 104 105 107 108 107 107 107 105 103 104 104 104 103 104 102 101 102 102 101 99 99 97 96 96 96 94 93 92 91 91 90 90 91 92
107 109 108 109 107 106 103 104 106 106 105 107 108 108 107 105 102 101 100 99 98 97 95 94 93 94 95 95 94 94 93 91 90 90 89 88 87 85 84 83 82 81 80 80
108 107 105 102 105 104 105 107 106 106 107 107 105 104 102 100 98 96 93 88 85 86 87 86 86 87 88 87 85 84 84 84 83 84 83 82 81 79 79 77 76 74 73 74
108 105 105 107 107 108 106 107 108 107 105 105 104 101 96 94 90 86 84 82 81 81 80 80 81 82 82 82 81 80 78 78 77 77 78 77 76 75 74 73 73 72 72 71
Wind_Direction
270 270 269 271 272 273 278 279 279 283 287 289 294 297 298 297 295 293 288 282 276 273 262 252 253 254 255 255 255 256 258 259 260 261 262 263 264 266 268 268 270 272 274 275
263 263 264 267 274 277 276 277 279 281 284 289 293 295 294 292 293 290 284 278 275 269 267 264 258 255 257 257 257 257 258 259 261 262 264 265 266 267 268 268 270 271 272 271
259 266 271 277 278 276 274 275 277 277 281 288 290 292 294 292 288 285 282 278 275 273 269 268 265 262 259 258 258 259 260 260 261 262 264 265 265 266 268 268 269 269 270 270
268 274 278 276 275 274 274 273 272 275 280 286 286 288 290 290 286 281 278 278 278 276 273 270 269 268 266 263 261 260 261 261 263 264 264 265 266 267 268 268 268 268 268 268
273 276 274 274 275 275 274 275 276 279 283 287 283 285 282 287 285 282 280 278 277 276 273 273 271 269 268 267 267 266 265 264 264 264 264 265 266 266 267 267 267 268 267 266
272 275 276 275 272 273 274 276 279 281 284 284 282 283 280 282 283 284 282 280 279 279 277 275 272 269 268 268 268 268 267 266 265 266 266 266 266 267 267 268 268 268 267 267
272 272 274 272 274 277 278 278 279 281 281 281 279 283 282 278 280 282 283 283 283 283 281 278 276 274 273 271 270 268 267 267 266 267 267 267 267 267 267 268 268 269 269 269
268 270 271 273 277 279 280 279 280 280 278 279 280 283 279 278 278 279 282 282 281 280 280 282 281 278 276 275 274 272 271 269 267 266 266 266 266 266 267 267 268 269 269 270
268 271 274 275 276 276 277 278 278 278 279 279 279 277 277 277 277 278 280 280 281 280 281 285 284 282 280 278 278 277 276 273 271 270 268 268 267 267 266 266 267 267 268 269
272 274 275 275 275 276 277 278 278 280 279 279 278 277 276 274 275 276 276 276 278 275 275 278 279 280 280 280 280 279 278 277 275 272 271 270 270 270 269 269 268 268 268 268
273 273 273 273 275 277 278 279 280 280 282 281 281 281 280 278 277 276 277 277 277 275 274 275 276 278 279 280 281 281 281 280 279 276 274 273 272 272 271 270 269 268 268 268
271 271 273 274 275 276 278 279 279 279 279 281 280 282 280 280 282 281 282 281 279 278 278 278 277 276 276 276 277 278 278 279 279 278 276 276 276 276 275 274 273 271 270 269
274 275 274 274 275 276 278 279 280 282 283 283 284 283 281 282 282 281 280 280 280 280 280 280 280 279 279 278 277 277 277 276 276 276 275 274 274 275 273 272 271 270 271 270
274 274 276 276 277 279 280 281 282 282 282 283 285 283 282 282 282 282 282 282 282 283 282 282 281 281 280 280 278 277 276 276 275 274 273 272 272 272 272 272 271 269 268 267
276 276 277 277 279 280 281 283 282 282 282 283 280 282 281 282 283 283 282 282 282 282 283 283 282 281 280 278 278 277 276 276 275 274 274 274 273 273 272 271 270 269 268 268
277 277 278 280 281 281 282 281 281 281 281 282 282 282 283 284 284 283 282 282 282 282 282 281 280 280 279 278 277 276 275 274 274 274 274 274 274 274 273 272 270 269 268 267
277 277 277 278 279 281 282 280 280 280 282 283 284 284 283 283 282 282 281 281 280 279 278 278 278 278 278 278 277 275 274 273 273 272 272 272 272 272 272 272 271 270 269 269
275 277 278 279 280 280 281 283 283 283 284 284 284 284 283 281 280 278 278 279 279 279 278 278 278 278 276 275 274 273 272 272 271 271 271 271 271 270 270 269 269 268 269 269
277 279 279 280 280 281 281 281 281 281 280 280 280 280 279 280 281 281 281 281 280 280 279 278 278 278 277 276 275 274 274 273 273 272 271 271 271 270 269 269 269 269 268 268
280 281 280 281 282 282 282 282 281 280 280 281 281 281 282 281 281 281 281 281 280 279 279 279 279 278 278 277 276 275 274 274 273 272 271 271 271 271 270 270 269 269 268 268
280 282 282 282 283 284 285 285 285 284 283 283 282 283 283 283 283 283 282 282 282 282 281 281 279 278 276 276 275 274 273 271 271 271 270 270 270 270 270 270 270 270 269 268
283 284 283 282 284 286 287 286 287 286 285 285 285 284 284 284 284 284 284 285 285 285 285 283 282 280 278 277 276 275 274 273 273 272 271 270 270 269 268 268 268 268 268 267
287 288 288 287 287 287 287 287 286 285 285 285 286 286 286 286 286 286 286 286 285 284 283 282 282 280 279 279 278 277 276 275 274 273 272 272 271 271 270 269 268 267 267 267
289 288 287 287 288 287 288 288 289 289 290 290 290 289 289 289 289 288 287 286 285 284 282 281 280 278 276 276 275 275 274 273 272 272 272 272 271 271 270 269 268 267 266 265
287 286 286 288 288 289 289 290 290 291 291 291 290 290 289 289 289 289 288 287 285 283 281 279 277 275 274 274 274 273 272 271 271 270 270 270 270 269 268 267 267 266 266 265
286 288 289 290 291 291 291 291 291 292 292 291 291 291 291 290 289 289 289 290 288 285 281 279 276 274 273 273 272 272 271 270 269 268 268 268 267 267 267 267 267 267 267 266